Corning, AR

3:54 AM CDT on May 30, 2017 (GMT -0500)
Corning

Weather History for K4M9 - May, 2014

Change the Weather History Date:

Friday, May 16, 2014

  Actual Average (KARG) Record (KARG)
Temperature  
Mean Temperature 55 °F -  
Max Temperature 66 °F 77 °F 91 °F (2001)
Min Temperature 44 °F 58 °F 42 °F (1997)
Degree Days  
Heating Degree Days 10    
Growing Degree Days 5 (Base 50)    
Moisture  
Dew Point 41 °F    
Average Humidity 60    
Maximum Humidity 93    
Minimum Humidity 32    
Precipitation  
Precipitation 0.00 in - - ()
Sea Level Pressure  
Sea Level Pressure 30.10 in    
Wind  
Wind Speed 6 mph (WNW)    
Max Wind Speed 18 mph    
Max Gust Speed 28 mph    
Visibility 10 miles    
Events      
Averages and records for this station are not official NWS values.
T = Trace of Precipitation, MM = Missing Value Source: NWS Daily Summary

Daily Weather History Graph

Daily Weather History Graph

Search for Another Location

Airport or City:

Trip Planner

Search our weather history database for the weather conditions in past years. The results will help you decide how hot, cold, wet, or windy it might be!

Date:

Astronomy

May. 16, 2014 Rise Set
Actual Time 5:55 AM CDT 8:03 PM CDT
Civil Twilight 5:26 AM CDT 8:32 PM CDT
Nautical Twilight 4:51 AM CDT 9:07 PM CDT
Astronomical Twilight 4:13 AM CDT 9:45 PM CDT
Moon 10:10 PM CDT (5/16) 7:37 AM CDT (5/16)
Length of Visible Light 15h 05m
Length of Day
14h 08m
Waning Gibbous, 95% of the Moon is Illuminated
May 16
Waning Gibbous
May 21
Last Quarter
May 28
New
Jun 5
First Quarter
Jun 12
Full

Hourly Weather History & Observations

Time (CDT) Temp. Windchill Dew Point Humidity Pressure Visibility Wind Dir Wind Speed Gust Speed Precip Events Conditions
12:15 AM 50.0 °F - 41.0 °F 71% 30.12 in 10.0 mi NW 4.6 mph - N/A   Clear
12:35 AM 48.2 °F - 41.0 °F 76% 30.12 in 10.0 mi NW 4.6 mph - N/A   Clear
12:55 AM 50.0 °F - 41.0 °F 71% 30.11 in 10.0 mi NW 3.5 mph - N/A   Clear
1:15 AM 48.2 °F - 42.8 °F 82% 30.11 in 10.0 mi WNW 3.5 mph - N/A   Clear
1:35 AM 46.4 °F 45.2 °F 44.6 °F 93% 30.10 in 10.0 mi West 3.5 mph - N/A   Clear
1:55 AM 46.4 °F - 44.6 °F 93% 30.10 in 10.0 mi Calm Calm - N/A   Clear
2:15 AM 46.4 °F 45.2 °F 42.8 °F 87% 30.10 in 10.0 mi West 3.5 mph - N/A   Clear
2:35 AM 46.4 °F 43.5 °F 41.0 °F 81% 30.10 in 10.0 mi West 5.8 mph - N/A   Clear
2:55 AM 46.4 °F 44.3 °F 41.0 °F 81% 30.10 in 10.0 mi West 4.6 mph - N/A   Clear
3:15 AM 46.4 °F 43.5 °F 39.2 °F 76% 30.10 in 10.0 mi West 5.8 mph - N/A   Clear
3:35 AM 44.6 °F 43.1 °F 41.0 °F 87% 30.10 in 10.0 mi SW 3.5 mph - N/A   Clear
3:55 AM 44.6 °F 42.2 °F 41.0 °F 87% 30.09 in 10.0 mi SW 4.6 mph - N/A   Clear
4:15 AM 44.6 °F 42.2 °F 41.0 °F 87% 30.10 in 10.0 mi WSW 4.6 mph - N/A   Clear
4:35 AM 44.6 °F 42.2 °F 41.0 °F 87% 30.10 in 10.0 mi WSW 4.6 mph - N/A   Clear
4:55 AM 44.6 °F - 41.0 °F 87% 30.10 in 10.0 mi Calm Calm - N/A   Clear
5:35 AM 44.6 °F 42.2 °F 41.0 °F 87% 30.10 in 10.0 mi West 4.6 mph - N/A   Partly Cloudy
5:55 AM 44.6 °F 42.2 °F 41.0 °F 87% 30.11 in 10.0 mi West 4.6 mph - N/A   Clear
6:15 AM 44.6 °F 42.2 °F 39.2 °F 81% 30.11 in 10.0 mi West 4.6 mph - N/A   Clear
6:35 AM 44.6 °F 41.4 °F 39.2 °F 81% 30.11 in 10.0 mi West 5.8 mph - N/A   Clear
6:55 AM 44.6 °F 41.4 °F 39.2 °F 81% 30.12 in 10.0 mi West 5.8 mph - N/A   Clear
7:15 AM 44.6 °F 41.4 °F 39.2 °F 81% 30.13 in 10.0 mi West 5.8 mph - N/A   Clear
7:35 AM 46.4 °F 42.9 °F 39.2 °F 76% 30.13 in 10.0 mi NW 6.9 mph - N/A   Clear
7:55 AM 46.4 °F 44.3 °F 39.2 °F 76% 30.13 in 10.0 mi WNW 4.6 mph - N/A   Clear
8:15 AM 48.2 °F - 39.2 °F 71% 30.13 in 10.0 mi NW 5.8 mph - N/A   Clear
8:35 AM 48.2 °F - 39.2 °F 71% 30.13 in 10.0 mi NNW 3.5 mph - N/A   Clear
8:55 AM 50.0 °F - 39.2 °F 66% 30.13 in 10.0 mi North 5.8 mph - N/A   Clear
9:15 AM 51.8 °F - 41.0 °F 67% 30.13 in 10.0 mi NNW 3.5 mph - N/A   Clear
9:35 AM 53.6 °F - 39.2 °F 58% 30.13 in 10.0 mi NNW 5.8 mph - N/A   Unknown
9:55 AM 53.6 °F - 41.0 °F 62% 30.13 in 10.0 mi NNW 3.5 mph - N/A   Unknown
10:15 AM 55.4 °F - 41.0 °F 58% 30.12 in 10.0 mi NE 4.6 mph - N/A   Unknown
10:35 AM 57.2 °F - 39.2 °F 51% 30.12 in 10.0 mi Calm Calm - N/A   Unknown
10:55 AM 57.2 °F - 39.2 °F 51% 30.12 in 10.0 mi NW 5.8 mph - N/A   Unknown
11:15 AM 57.2 °F - 39.2 °F 51% 30.12 in 10.0 mi West 5.8 mph - N/A   Unknown
11:35 AM 59.0 °F - 41.0 °F 51% 30.12 in 10.0 mi WSW 6.9 mph - N/A   Unknown
11:55 AM 60.8 °F - 41.0 °F 48% 30.11 in 10.0 mi WSW 9.2 mph - N/A   Unknown
12:35 PM 62.6 °F - 42.8 °F 48% 30.10 in 10.0 mi West 12.7 mph - N/A   Unknown
12:55 PM 62.6 °F - 41.0 °F 45% 30.10 in 10.0 mi West 10.4 mph 17.3 mph N/A   Unknown
1:15 PM 62.6 °F - 41.0 °F 45% 30.09 in 10.0 mi West 8.1 mph 17.3 mph N/A   Unknown
1:35 PM 62.6 °F - 41.0 °F 45% 30.08 in 10.0 mi WSW 16.1 mph 21.9 mph N/A   Unknown
1:55 PM 64.4 °F - 39.2 °F 40% 30.08 in 10.0 mi West 16.1 mph - N/A   Unknown
2:15 PM 64.4 °F - 39.2 °F 40% 30.07 in 10.0 mi West 12.7 mph 20.7 mph N/A   Unknown
2:35 PM 66.2 °F - 37.4 °F 35% 30.07 in 10.0 mi West 12.7 mph 21.9 mph N/A   Unknown
2:55 PM 66.2 °F - 37.4 °F 35% 30.07 in 10.0 mi WNW 18.4 mph 24.2 mph N/A   Unknown
3:15 PM 66.2 °F - 37.4 °F 35% 30.07 in 10.0 mi WNW 17.3 mph 27.6 mph N/A   Unknown
3:35 PM 66.2 °F - 39.2 °F 37% 30.06 in 10.0 mi West 12.7 mph 16.1 mph N/A   Unknown
3:55 PM 66.2 °F - 39.2 °F 37% 30.06 in 10.0 mi WNW 15.0 mph 19.6 mph N/A   Unknown
4:15 PM 66.2 °F - 37.4 °F 35% 30.06 in 10.0 mi West 10.4 mph 16.1 mph N/A   Unknown
4:35 PM 66.2 °F - 37.4 °F 35% 30.06 in 10.0 mi West 11.5 mph - N/A   Unknown
4:55 PM 66.2 °F - 39.2 °F 37% 30.05 in 10.0 mi West 15.0 mph - N/A   Unknown
5:15 PM 66.2 °F - 39.2 °F 37% 30.05 in 10.0 mi West 10.4 mph 16.1 mph N/A   Unknown
5:35 PM 64.4 °F - 39.2 °F 40% 30.05 in 10.0 mi West 9.2 mph - N/A   Unknown
5:55 PM 64.4 °F - 41.0 °F 42% 30.05 in 10.0 mi West 6.9 mph - N/A   Unknown
6:15 PM 64.4 °F - 42.8 °F 45% 30.05 in 10.0 mi WSW 9.2 mph - N/A   Unknown
6:35 PM 64.4 °F - 46.4 °F 52% 30.05 in 10.0 mi WSW 6.9 mph - N/A   Unknown
6:55 PM 62.6 °F - 46.4 °F 55% 30.05 in 10.0 mi WSW 5.8 mph - N/A   Clear
7:15 PM 62.6 °F - 46.4 °F 55% 30.06 in 10.0 mi WSW 5.8 mph - N/A   Clear
7:35 PM 62.6 °F - 48.2 °F 59% 30.06 in 10.0 mi West 5.8 mph - N/A   Clear
7:55 PM 60.8 °F - 48.2 °F 63% 30.07 in 10.0 mi NW 4.6 mph - N/A   Clear
8:15 PM 60.8 °F - 50.0 °F 68% 30.07 in 10.0 mi WNW 3.5 mph - N/A   Clear
8:35 PM 60.8 °F - 46.4 °F 59% 30.08 in 10.0 mi NW 11.5 mph 19.6 mph N/A   Scattered Clouds
8:55 PM 62.6 °F - 32.0 °F 32% 30.09 in 10.0 mi WNW 15.0 mph 23.0 mph N/A   Mostly Cloudy
9:15 PM 60.8 °F - 46.4 °F 59% 30.10 in 10.0 mi WNW 6.9 mph - N/A   Overcast
9:35 PM 59.0 °F - 44.6 °F 59% 30.12 in 10.0 mi NW 4.6 mph - N/A   Overcast
9:55 PM 60.8 °F - 35.6 °F 39% 30.13 in 10.0 mi West 15.0 mph 20.7 mph N/A   Overcast
10:15 PM 59.0 °F - 37.4 °F 45% 30.12 in 10.0 mi NNW 11.5 mph - N/A   Overcast
10:35 PM 59.0 °F - 35.6 °F 42% 30.11 in 10.0 mi North 5.8 mph - N/A   Mostly Cloudy
11:15 PM 57.2 °F - 39.2 °F 51% 30.12 in 10.0 mi North 8.1 mph - N/A   Overcast
11:35 PM 57.2 °F - 41.0 °F 55% 30.13 in 10.0 mi North 8.1 mph - N/A   Overcast
11:55 PM 57.2 °F - 41.0 °F 55% 30.14 in 10.0 mi North 5.8 mph - N/A   Overcast